period_start,C,m1,H,J0,J1,J2,J3,J4,J5,JA,JB,JC,JD,JJ,JK,JN,#
2015-05-18 00:04:10,0.04,0.70,0.00,23.50,27.24,30.00,4.73,24.06,1013.31,2035.02,3174.44,3121.62,3370.96,349.48,345.42,14.71,0000 0000 0000 0000 000000
2015-05-18 00:09:11,0.04,0.71,0.00,23.51,27.25,29.98,4.75,24.12,1013.25,2035.02,3174.01,3121.06,3370.30,349.97,346.07,14.74,0000 0000 0000 0000 000000
2015-05-18 00:14:13,0.02,0.71,0.00,23.54,27.25,29.98,4.66,24.03,1013.23,2035.00,3173.49,3120.98,3370.00,349.29,345.15,14.77,0000 0000 0000 0000 000000
2015-05-18 00:19:14,0.06,0.71,0.00,23.55,27.25,29.99,4.72,24.09,1013.26,2035.00,3172.98,3120.31,3369.40,349.33,345.18,14.79,0000 0000 0000 0000 000000
2015-05-18 00:24:15,0.04,0.71,0.00,23.57,27.25,29.95,4.76,23.93,1013.27,2035.04,3172.40,3120.02,3369.02,350.32,346.34,14.82,0000 0000 0000 0000 000000
2015-05-18 00:29:17,0.01,0.71,0.00,23.61,27.25,29.95,4.75,24.07,1013.23,2035.03,3171.97,3119.97,3368.92,350.41,346.23,14.85,0000 0000 0000 0000 000000
2015-05-18 00:34:18,0.07,0.71,0.00,23.62,27.25,29.96,4.73,24.05,1013.22,2035.02,3171.27,3119.47,3368.18,349.76,345.67,14.88,0000 0000 0000 0000 000000
2015-05-18 00:39:19,0.01,0.71,0.00,23.63,27.25,29.95,4.79,23.97,1013.22,2035.02,3170.98,3119.05,3368.00,350.57,346.51,14.91,0000 0000 0000 0000 000000
2015-05-18 00:44:20,0.03,0.71,0.00,23.66,27.25,29.95,4.71,24.13,1013.21,2035.01,3170.23,3118.99,3367.83,349.54,345.30,14.94,0000 0000 0000 0000 000000
2015-05-18 00:49:22,0.04,0.71,0.00,23.68,27.25,29.94,4.69,24.10,1013.21,2035.01,3169.99,3118.61,3367.08,350.02,345.59,14.97,0000 0000 0000 0000 000000
2015-05-18 00:54:23,0.04,0.72,0.00,23.70,27.25,29.91,4.74,24.05,1013.21,2035.02,3169.37,3118.04,3366.99,349.50,345.22,15.00,0000 0000 0000 0000 000000
2015-05-18 00:59:24,0.02,0.72,0.00,23.73,27.25,29.87,4.67,24.20,1013.21,2035.01,3169.00,3117.98,3366.52,349.79,345.57,15.03,0000 0000 0000 0000 000000
2015-05-18 01:04:26,0.02,0.72,0.00,23.77,27.27,29.87,4.72,24.00,1013.20,2035.00,3168.76,3117.82,3366.06,350.14,345.74,15.06,0000 0000 0000 0000 000000
2015-05-18 01:09:27,0.04,0.72,0.00,23.79,27.27,29.87,4.76,23.97,1013.20,2035.01,3168.06,3117.12,3365.99,350.19,345.77,15.09,0000 0000 0000 0000 000000
2015-05-18 01:14:28,0.02,0.72,0.00,23.80,27.27,29.87,4.71,24.06,1013.20,2035.00,3167.93,3117.00,3365.62,350.38,345.72,15.12,0000 0000 0000 0000 000000
2015-05-18 01:19:29,0.04,0.72,0.00,23.84,27.27,29.84,4.73,23.97,1013.20,2035.01,3167.16,3116.87,3365.04,350.11,345.65,15.15,0000 0000 0000 0000 000000
2015-05-18 01:24:30,0.04,0.72,0.00,23.87,27.27,29.82,4.75,24.06,1013.20,2035.00,3166.76,3116.19,3364.95,350.16,345.66,15.18,0000 0000 0000 0000 000000
2015-05-18 01:29:31,0.04,0.72,0.00,23.89,27.27,29.81,4.65,24.06,1013.20,2035.00,3166.15,3116.00,3364.44,349.77,345.05,15.20,0000 0000 0000 0000 000000
2015-05-18 01:34:33,0.01,0.72,0.00,23.93,27.29,29.82,4.74,23.97,1013.16,2035.00,3165.96,3115.89,3364.01,349.83,345.25,15.23,0000 0000 0000 0000 000000
2015-05-18 01:39:34,0.06,0.73,0.00,23.98,27.30,29.81,4.74,24.05,1013.08,2035.00,3165.24,3115.13,3363.83,349.72,345.33,15.26,0000 0000 0000 0000 000000
2015-05-18 01:44:35,0.02,0.73,0.00,24.02,27.30,29.82,4.68,23.98,1013.03,2035.00,3165.00,3115.01,3363.23,350.74,345.98,15.29,0000 0000 0000 0000 000000
2015-05-18 01:49:36,0.02,0.73,0.00,24.02,27.30,29.81,4.70,23.89,1012.99,2035.00,3164.61,3114.98,3363.00,350.17,345.35,15.32,0000 0000 0000 0000 000000
2015-05-18 01:54:38,0.09,0.73,0.00,24.04,27.32,29.83,4.76,23.94,1012.87,2035.00,3163.72,3114.20,3362.37,349.65,344.95,15.35,0000 0000 0000 0000 000000
2015-05-18 01:59:39,0.09,0.73,0.00,24.08,27.32,29.81,4.73,24.18,1012.79,2034.98,3162.60,3113.46,3361.60,349.87,345.09,15.38,0000 0000 0000 0000 000000
2015-05-18 02:04:40,0.03,0.73,0.00,24.11,27.32,29.82,4.69,24.10,1012.76,2034.99,3161.75,3112.97,3360.99,349.30,344.38,15.41,0000 0000 0000 0000 000000
2015-05-18 02:09:41,0.09,0.74,0.00,24.13,27.34,29.82,4.68,24.01,1012.73,2034.98,3160.84,3112.13,3360.15,349.88,344.94,15.44,0000 0000 0000 0000 000000
2015-05-18 02:14:42,0.07,0.74,0.00,24.15,27.35,29.82,4.71,24.04,1012.72,2034.99,3159.89,3111.69,3359.65,349.51,344.64,15.47,0000 0000 0000 0000 000000
2015-05-18 02:19:43,0.05,0.74,0.00,24.18,27.35,29.84,4.66,23.98,1012.72,2034.98,3158.90,3111.00,3358.91,350.17,345.10,15.50,0000 0000 0000 0000 000000
2015-05-18 02:24:45,0.08,0.74,0.00,24.23,27.37,29.84,4.66,23.91,1012.72,2034.95,3158.06,3110.26,3358.08,350.01,344.81,15.53,0000 0000 0000 0000 000000
2015-05-18 02:29:46,0.03,0.74,0.00,24.25,27.37,29.84,4.73,23.92,1012.72,2034.97,3157.34,3110.00,3357.93,350.01,344.81,15.56,0000 0000 0000 0000 000000
2015-05-18 02:34:47,0.03,0.74,0.00,24.27,27.38,29.85,4.68,24.04,1012.73,2034.98,3156.97,3109.88,3357.27,350.02,344.99,15.59,0000 0000 0000 0000 000000
2015-05-18 02:39:48,0.06,0.75,0.00,24.29,27.40,29.86,4.70,23.87,1012.72,2034.96,3156.25,3109.11,3357.00,350.35,345.20,15.61,0000 0000 0000 0000 000000
2015-05-18 02:44:50,0.02,0.75,0.00,24.33,27.40,29.87,4.70,23.94,1012.72,2034.93,3155.98,3109.00,3356.50,349.68,344.56,15.64,0000 0000 0000 0000 000000
2015-05-18 02:49:51,0.05,0.75,0.00,24.39,27.42,29.87,4.74,23.96,1012.72,2034.87,3155.28,3108.61,3356.02,350.37,345.16,15.67,0000 0000 0000 0000 000000
2015-05-18 02:54:52,0.00,0.75,0.00,24.42,27.42,29.88,4.72,23.93,1012.73,2034.77,3154.95,3108.03,3355.82,350.18,344.88,15.70,0000 0000 0000 0000 000000
2015-05-18 02:59:54,0.03,0.75,0.00,24.44,27.43,29.88,4.73,24.05,1012.75,2034.60,3154.11,3107.98,3355.07,349.87,344.65,15.73,0000 0000 0000 0000 000000
2015-05-18 03:04:55,0.04,0.75,0.00,24.46,27.45,29.89,4.71,24.02,1012.73,2034.55,3153.90,3107.39,3354.99,349.83,344.62,15.76,0000 0000 0000 0000 000000
2015-05-18 03:09:56,0.04,0.75,0.00,24.49,27.45,29.91,4.73,23.96,1012.71,2034.55,3153.17,3107.01,3354.52,350.19,344.82,15.79,0000 0000 0000 0000 000000
2015-05-18 03:14:57,-0.04,0.75,0.00,24.51,27.47,29.93,4.71,23.99,1012.71,2034.29,3152.91,3106.97,3354.02,349.99,344.37,15.82,0000 0000 0000 0000 000000
2015-05-18 03:19:58,0.09,0.75,0.00,24.54,27.47,29.94,4.68,23.98,1012.71,2034.29,3152.13,3106.31,3353.76,349.44,344.00,15.85,0000 0000 0000 0000 000000
2015-05-18 03:25:00,-0.00,0.75,0.00,24.58,27.49,29.94,4.69,23.98,1012.71,2034.07,3151.78,3106.00,3353.05,349.39,344.03,15.88,0000 0000 0000 0000 000000
2015-05-18 03:30:01,0.03,0.75,0.00,24.60,27.50,29.95,4.69,23.84,1012.71,2034.04,3151.05,3105.77,3352.93,350.26,344.93,15.91,0000 0000 0000 0000 000000
2015-05-18 03:35:02,0.06,0.76,0.00,24.62,27.51,29.97,4.75,23.81,1012.71,2034.05,3150.71,3105.11,3352.23,350.92,345.60,15.94,0000 0000 0000 0000 000000
2015-05-18 03:40:04,0.02,0.76,0.00,24.63,27.52,29.97,4.67,23.91,1012.71,2034.01,3150.04,3104.96,3351.95,349.39,343.68,15.97,0000 0000 0000 0000 000000
2015-05-18 03:45:05,0.07,0.76,0.00,24.65,27.54,29.99,4.67,23.95,1012.71,2034.00,3149.69,3104.35,3351.30,349.53,344.05,16.00,0000 0000 0000 0000 000000
2015-05-18 03:50:06,0.02,0.76,0.00,24.66,27.55,30.00,4.72,23.87,1012.70,2034.00,3149.06,3104.02,3351.00,350.40,344.58,16.02,0000 0000 0000 0000 000000
2015-05-18 03:55:08,0.05,0.76,0.00,24.67,27.56,30.02,4.65,23.92,1012.67,2034.00,3148.59,3103.81,3350.59,349.63,344.17,16.05,0000 0000 0000 0000 000000
2015-05-18 04:00:09,0.04,0.76,0.00,24.69,27.57,30.03,4.70,24.02,1012.65,2034.00,3148.01,3103.06,3350.01,350.14,344.45,16.08,0000 0000 0000 0000 000000
2015-05-18 04:05:10,0.02,0.76,0.00,24.72,27.59,30.05,4.71,23.86,1012.63,2034.00,3147.69,3103.00,3349.91,350.37,344.77,16.11,0000 0000 0000 0000 000000
2015-05-18 04:10:11,0.06,0.76,0.00,24.72,27.60,30.06,4.71,23.94,1012.64,2033.99,3147.04,3102.69,3349.22,349.89,344.30,16.14,0000 0000 0000 0000 000000
2015-05-18 04:15:12,0.04,0.77,0.00,24.74,27.61,30.08,4.75,23.87,1012.53,2033.99,3146.67,3102.04,3348.99,349.94,344.21,16.17,0000 0000 0000 0000 000000
2015-05-18 04:20:14,0.02,0.77,0.00,24.76,27.62,30.09,4.66,23.96,1012.44,2033.96,3146.02,3101.98,3348.41,349.28,343.63,16.20,0000 0000 0000 0000 000000
2015-05-18 04:25:15,0.05,0.77,0.00,24.77,27.64,30.10,4.70,23.99,1012.45,2033.97,3145.75,3101.56,3348.01,350.12,344.32,16.23,0000 0000 0000 0000 000000
2015-05-18 04:30:17,0.02,0.77,0.00,24.80,27.65,30.12,4.67,23.91,1012.39,2033.87,3145.03,3101.03,3347.73,350.24,344.51,16.26,0000 0000 0000 0000 000000
2015-05-18 04:35:18,0.02,0.77,0.00,24.80,27.67,30.13,4.72,23.84,1012.36,2033.82,3144.81,3100.97,3347.05,350.45,344.46,16.29,0000 0000 0000 0000 000000
2015-05-18 04:40:19,0.02,0.77,0.00,24.82,27.68,30.15,4.69,23.93,1012.48,2033.66,3144.08,3100.45,3347.00,349.91,344.04,16.32,0000 0000 0000 0000 000000
2015-05-18 04:45:21,0.00,0.77,0.00,24.83,27.70,30.16,4.63,23.86,1012.36,2033.43,3143.82,3100.02,3346.50,349.33,343.06,16.35,0000 0000 0000 0000 000000
2015-05-18 04:50:22,-0.00,0.77,0.00,24.85,27.70,30.18,4.67,23.92,1012.43,2033.24,3143.06,3099.92,3346.01,349.65,343.76,16.38,0000 0000 0000 0000 000000
2015-05-18 04:55:23,0.03,0.77,0.00,24.85,27.72,30.18,4.66,23.82,1012.39,2033.16,3142.88,3099.30,3345.88,349.78,343.64,16.41,0000 0000 0000 0000 000000
2015-05-18 05:00:25,0.04,0.77,0.00,24.87,27.73,30.20,4.71,23.96,1012.32,2033.03,3142.07,3099.01,3345.08,350.13,344.06,16.43,0000 0000 0000 0000 000000
2015-05-18 05:05:26,0.01,0.77,0.00,24.87,27.75,30.22,4.69,23.89,1012.28,2033.03,3141.94,3098.91,3344.99,349.92,343.91,16.46,0000 0000 0000 0000 000000
2015-05-18 05:10:27,0.08,0.77,0.00,24.87,27.76,30.24,4.71,23.88,1012.24,2033.02,3141.19,3098.29,3344.64,349.45,343.49,16.49,0000 0000 0000 0000 000000
2015-05-18 05:15:28,0.02,0.78,0.00,24.87,27.77,30.24,4.70,23.90,1012.25,2033.01,3140.84,3098.01,3344.03,349.55,343.55,16.52,0000 0000 0000 0000 000000
2015-05-18 05:20:29,0.04,0.78,0.00,24.89,27.79,30.26,4.62,23.88,1012.24,2033.00,3140.06,3097.78,3343.86,349.45,343.64,16.55,0000 0000 0000 0000 000000
2015-05-18 05:25:31,0.04,0.78,0.00,24.90,27.80,30.27,4.71,23.82,1012.25,2033.00,3139.99,3097.18,3343.18,350.05,343.93,16.58,0000 0000 0000 0000 000000
2015-05-18 05:30:32,0.03,0.78,0.00,24.90,27.82,30.29,4.68,23.77,1012.23,2033.00,3139.30,3097.01,3342.99,349.94,343.83,16.61,0000 0000 0000 0000 000000
2015-05-18 05:35:33,0.02,0.78,0.00,24.92,27.83,30.30,4.64,23.80,1012.23,2033.00,3139.00,3096.93,3342.68,350.08,344.02,16.64,0000 0000 0000 0000 000000
2015-05-18 05:40:34,0.06,0.78,0.00,24.92,27.85,30.33,4.67,23.83,1012.24,2033.00,3138.63,3096.27,3342.06,349.85,343.77,16.67,0000 0000 0000 0000 000000
2015-05-18 05:45:36,0.01,0.78,0.00,24.92,27.86,30.33,4.72,23.88,1012.23,2032.99,3138.02,3096.00,3341.97,350.21,344.08,16.70,0000 0000 0000 0000 000000
2015-05-18 05:50:37,0.06,0.78,0.00,24.92,27.87,30.35,4.72,23.97,1012.23,2032.99,3137.51,3095.77,3341.25,349.74,343.71,16.73,0000 0000 0000 0000 000000
2015-05-18 05:55:38,0.02,0.79,0.00,24.85,27.88,30.39,4.69,23.91,1012.23,2032.97,3137.01,3095.10,3341.00,349.38,343.57,16.76,0000 0000 0000 0000 000000
2015-05-18 06:00:39,0.01,0.79,0.00,24.66,27.89,30.67,4.68,23.98,1012.24,2032.97,3136.67,3095.00,3340.95,350.07,344.33,16.79,0000 0000 0000 0000 000000
2015-05-18 06:05:41,0.04,0.79,0.00,24.63,27.90,30.70,4.73,23.88,1012.23,2032.98,3136.08,3094.98,3340.47,350.21,344.51,16.82,0000 0000 0000 0000 000000
2015-05-18 06:10:42,0.01,0.79,0.00,24.74,27.90,30.66,4.73,23.90,1012.23,2032.98,3135.99,3094.81,3340.02,350.37,344.53,16.84,0000 0000 0000 0000 000000
2015-05-18 06:15:43,0.04,0.79,0.00,24.83,27.90,30.58,4.68,23.82,1012.22,2032.98,3135.62,3094.16,3340.00,349.77,343.99,16.87,0000 0000 0000 0000 000000
2015-05-18 06:20:45,0.02,0.79,0.00,24.83,27.90,30.56,4.70,23.86,1012.22,2032.99,3135.03,3094.02,3339.90,349.74,343.81,16.90,0000 0000 0000 0000 000000
2015-05-18 06:25:46,0.02,0.79,0.00,24.62,27.90,30.61,4.68,23.92,1012.22,2032.98,3134.98,3093.99,3339.15,349.26,343.57,16.93,0000 0000 0000 0000 000000
2015-05-18 06:30:47,0.06,0.79,0.00,24.54,27.88,30.61,4.75,23.94,1012.22,2032.97,3134.30,3093.55,3338.99,350.08,344.48,16.96,0000 0000 0000 0000 000000
2015-05-18 06:35:48,0.02,0.79,0.00,24.51,27.87,30.55,4.73,23.89,1012.22,2032.96,3133.99,3093.03,3338.81,350.32,344.80,16.99,0000 0000 0000 0000 000000
2015-05-18 06:40:50,0.03,0.79,0.00,24.46,27.86,30.54,4.70,23.85,1012.21,2032.98,3133.71,3093.00,3338.27,350.00,344.47,17.02,0000 0000 0000 0000 000000
2015-05-18 06:45:51,0.02,0.79,0.00,24.33,27.85,30.50,4.71,23.88,1012.14,2032.98,3133.04,3092.99,3338.01,349.75,344.38,17.05,0000 0000 0000 0000 000000
2015-05-18 06:50:53,0.00,0.79,0.00,24.42,27.83,30.48,4.60,23.86,1012.04,2032.99,3133.00,3092.95,3338.00,348.97,343.66,17.08,0000 0000 0000 0000 000000
2015-05-18 06:55:54,0.01,0.79,0.00,24.55,27.82,30.42,4.62,23.92,1012.14,2032.99,3132.94,3092.78,3337.97,349.19,343.56,17.11,0000 0000 0000 0000 000000
2015-05-18 07:00:56,0.03,0.80,0.00,24.44,27.81,30.41,4.77,24.02,1012.16,2032.99,3132.39,3092.25,3337.95,350.08,344.61,17.14,0000 0000 0000 0000 000000
2015-05-18 07:05:57,0.03,0.80,0.00,24.31,27.80,30.48,4.75,23.86,1012.14,2032.99,3132.03,3092.07,3337.50,349.98,344.44,17.17,0000 0000 0000 0000 000000
2015-05-18 07:10:58,0.01,0.80,0.00,24.28,27.79,30.46,4.75,23.93,1011.90,2033.00,3131.98,3092.00,3337.04,350.06,344.69,17.20,0000 0000 0000 0000 000000
2015-05-18 07:15:59,0.01,0.80,0.00,24.24,27.77,30.45,4.64,23.93,1011.80,2033.00,3131.62,3092.00,3337.00,349.69,344.25,17.23,0000 0000 0000 0000 000000
2015-05-18 07:21:01,0.01,0.80,0.00,24.21,27.76,30.43,4.75,23.82,1011.75,2033.00,3131.08,3091.98,3336.99,350.12,344.61,17.25,0000 0000 0000 0000 000000
2015-05-18 07:26:02,0.00,0.80,0.00,24.19,27.75,30.40,4.71,23.89,1011.75,2033.00,3131.00,3091.93,3336.96,349.45,344.08,17.28,0000 0000 0000 0000 000000
2015-05-18 07:31:03,0.03,0.80,0.00,24.19,27.73,30.39,4.71,23.94,1011.75,2033.01,3130.94,3091.56,3336.69,349.71,344.48,17.31,0000 0000 0000 0000 000000
2015-05-18 07:36:04,0.05,0.80,0.00,24.19,27.72,30.36,4.73,23.87,1011.75,2033.02,3130.40,3091.18,3336.10,349.98,344.59,17.34,0000 0000 0000 0000 000000
2015-05-18 07:41:06,0.01,0.80,0.00,24.18,27.71,30.33,4.69,23.88,1011.76,2033.05,3130.02,3091.05,3336.02,349.91,344.41,17.37,0000 0000 0000 0000 000000
2015-05-18 07:46:07,0.00,0.80,0.00,24.19,27.70,30.32,4.73,23.87,1011.76,2033.06,3129.99,3091.00,3336.00,349.69,344.29,17.40,0000 0000 0000 0000 000000
2015-05-18 07:51:08,0.01,0.80,0.00,24.20,27.70,30.29,4.74,23.89,1011.74,2033.07,3129.92,3091.00,3335.99,350.13,345.02,17.43,0000 0000 0000 0000 000000
2015-05-18 07:56:09,0.03,0.80,0.00,24.20,27.68,30.25,4.73,23.95,1011.74,2033.18,3129.50,3090.98,3335.97,349.87,344.50,17.46,0000 0000 0000 0000 000000
2015-05-18 08:01:10,0.04,0.80,0.00,24.20,27.67,30.25,4.76,23.92,1011.73,2033.20,3129.03,3090.88,3335.52,349.98,344.53,17.49,0000 0000 0000 0000 000000
2015-05-18 08:06:12,0.03,0.80,0.00,24.23,27.67,30.20,4.74,23.85,1011.73,2033.33,3129.00,3090.63,3335.22,349.91,344.43,17.52,0000 0000 0000 0000 000000
2015-05-18 08:11:13,0.07,0.81,0.00,24.26,27.67,30.21,4.76,23.83,1011.73,2033.52,3128.97,3090.16,3335.03,350.69,345.39,17.55,0000 0000 0000 0000 000000
2015-05-18 08:16:14,0.02,0.81,0.00,24.27,27.65,30.19,4.68,23.85,1011.73,2033.58,3128.52,3090.03,3335.00,349.63,344.24,17.58,0000 0000 0000 0000 000000
2015-05-18 08:21:16,0.05,0.81,0.00,24.30,27.65,30.17,4.76,23.96,1011.73,2033.78,3128.09,3090.02,3334.99,350.26,344.74,17.61,0000 0000 0000 0000 000000
2015-05-18 08:26:17,-0.01,0.81,0.00,24.32,27.65,30.16,4.71,23.90,1011.73,2033.71,3128.00,3090.00,3334.91,349.74,344.36,17.64,0000 0000 0000 0000 000000
2015-05-18 08:31:18,0.03,0.81,0.00,24.34,27.65,30.14,4.72,23.91,1011.73,2033.82,3128.00,3089.97,3334.70,349.87,344.12,17.66,0000 0000 0000 0000 000000
2015-05-18 08:36:20,0.03,0.81,0.00,24.35,27.65,30.14,4.71,23.88,1011.73,2033.90,3127.85,3089.93,3334.31,349.77,344.16,17.69,0000 0000 0000 0000 000000
2015-05-18 08:41:21,0.01,0.81,0.00,24.34,27.65,30.14,4.71,23.88,1011.73,2033.77,3127.15,3089.43,3334.01,350.23,344.77,17.72,0000 0000 0000 0000 000000
2015-05-18 08:46:22,0.03,0.81,0.00,24.36,27.65,30.14,4.69,23.93,1011.73,2033.79,3127.01,3089.12,3334.00,349.70,344.24,17.75,0000 0000 0000 0000 000000
2015-05-18 08:51:23,0.02,0.81,0.00,24.37,27.65,30.15,4.69,23.87,1011.73,2033.83,3126.95,3089.01,3333.96,349.46,343.76,17.78,0000 0000 0000 0000 000000
2015-05-18 08:56:25,0.03,0.81,0.00,24.37,27.65,30.14,4.65,23.96,1011.73,2033.80,3126.39,3089.00,3333.59,349.72,344.24,17.81,0000 0000 0000 0000 000000
2015-05-18 09:01:26,-0.00,0.81,0.00,24.37,27.65,30.14,4.73,23.87,1011.73,2033.66,3126.01,3088.97,3333.06,350.15,344.61,17.84,0000 0000 0000 0000 000000
2015-05-18 09:06:27,0.02,0.81,0.00,24.36,27.65,30.14,4.71,23.87,1011.73,2033.83,3125.98,3088.86,3333.01,349.58,344.10,17.87,0000 0000 0000 0000 000000
2015-05-18 09:11:29,0.05,0.82,0.00,24.36,27.65,30.14,4.71,23.84,1011.72,2033.87,3125.62,3088.29,3333.00,350.21,344.62,17.90,0000 0000 0000 0000 000000
2015-05-18 09:16:30,0.02,0.82,0.00,24.35,27.65,30.15,4.72,23.76,1011.71,2033.90,3125.09,3088.05,3332.93,350.08,344.51,17.93,0000 0000 0000 0000 000000
2015-05-18 09:21:31,0.01,0.82,0.00,24.36,27.65,30.15,4.71,23.80,1011.72,2033.87,3125.00,3088.00,3332.52,350.42,344.85,17.96,0000 0000 0000 0000 000000
2015-05-18 09:26:32,0.03,0.82,0.00,24.36,27.65,30.15,4.76,23.82,1011.71,2033.92,3124.81,3088.00,3332.10,350.19,344.39,17.99,0000 0000 0000 0000 000000
2015-05-18 09:31:33,0.02,0.82,0.00,24.37,27.65,30.15,4.72,23.87,1011.73,2033.88,3124.09,3087.89,3332.00,350.38,344.93,18.02,0000 0000 0000 0000 000000
2015-05-18 09:36:35,0.04,0.82,0.00,24.37,27.65,30.16,4.74,23.88,1011.72,2033.91,3124.00,3087.36,3331.98,350.29,344.64,18.05,0000 0000 0000 0000 000000
2015-05-18 09:41:36,0.01,0.82,0.00,24.37,27.65,30.15,4.67,23.92,1011.73,2033.92,3123.88,3087.04,3331.75,349.70,344.22,18.07,0000 0000 0000 0000 000000
2015-05-18 09:46:37,0.03,0.82,0.00,24.37,27.65,30.15,4.74,23.79,1011.73,2033.83,3123.12,3087.00,3331.05,349.74,344.13,18.10,0000 0000 0000 0000 000000
2015-05-18 09:51:38,-0.03,0.82,0.00,24.37,27.65,30.15,4.71,23.77,1011.73,2033.64,3123.00,3086.93,3331.00,349.87,344.16,18.13,0000 0000 0000 0000 000000
2015-05-18 09:56:39,0.04,0.82,0.00,24.35,27.65,30.16,4.69,23.91,1011.73,2033.51,3122.70,3086.43,3330.85,350.30,344.80,18.16,0000 0000 0000 0000 000000
2015-05-18 10:01:41,0.01,0.82,0.00,24.33,27.65,30.16,4.78,23.97,1011.73,2033.33,3122.03,3086.02,3330.09,349.97,344.46,18.19,0000 0000 0000 0000 000000
2015-05-18 10:06:42,0.03,0.82,0.00,24.32,27.67,30.16,4.68,23.86,1011.73,2033.46,3121.99,3085.99,3330.00,350.11,344.64,18.22,0000 0000 0000 0000 000000
2015-05-18 10:11:43,-0.01,0.82,0.00,24.30,27.67,30.16,4.72,23.82,1011.73,2033.29,3121.50,3085.84,3329.86,350.69,345.21,18.25,0000 0000 0000 0000 000000
2015-05-18 10:16:44,0.06,0.82,0.00,24.28,27.67,30.17,4.69,23.87,1011.73,2033.24,3121.01,3085.13,3329.14,349.86,344.46,18.28,0000 0000 0000 0000 000000
2015-05-18 10:21:46,0.01,0.82,0.00,24.26,27.67,30.17,4.71,23.87,1011.73,2033.18,3120.82,3085.00,3329.00,349.41,343.94,18.31,0000 0000 0000 0000 000000
2015-05-18 10:26:47,0.00,0.82,0.00,24.24,27.67,30.18,4.73,23.79,1011.73,2033.11,3120.08,3084.98,3328.95,350.06,344.73,18.34,0000 0000 0000 0000 000000
2015-05-18 10:31:48,0.05,0.83,0.00,24.22,27.67,30.20,4.78,23.79,1011.72,2033.13,3119.97,3084.62,3328.26,350.49,345.12,18.37,0000 0000 0000 0000 000000
2015-05-18 10:36:49,0.05,0.83,0.00,24.21,27.67,30.19,4.71,23.84,1011.72,2033.12,3119.35,3084.09,3328.00,350.40,344.99,18.40,0000 0000 0000 0000 000000
2015-05-18 10:41:50,0.03,0.83,0.00,24.18,27.67,30.21,4.66,23.76,1011.69,2033.21,3119.01,3084.01,3328.00,349.53,344.11,18.43,0000 0000 0000 0000 000000
2015-05-18 10:46:52,-0.00,0.83,0.00,24.16,27.67,30.22,4.75,23.91,1011.68,2033.23,3118.99,3084.00,3327.87,349.90,344.45,18.46,0000 0000 0000 0000 000000
2015-05-18 10:51:53,0.06,0.83,0.00,24.14,27.67,30.24,4.70,23.85,1011.65,2033.10,3118.29,3083.51,3327.08,349.68,344.13,18.48,0000 0000 0000 0000 000000
2015-05-18 10:56:55,0.08,0.83,0.00,24.11,27.67,30.27,4.77,23.96,1011.47,2033.09,3117.09,3082.83,3326.51,349.92,344.65,18.51,0000 0000 0000 0000 000000
2015-05-18 11:01:56,0.08,0.83,0.00,24.09,27.67,30.26,4.64,23.85,1011.32,2033.08,3116.00,3082.03,3325.70,349.81,344.23,18.54,0000 0000 0000 0000 000000
2015-05-18 11:06:57,0.08,0.84,0.00,24.06,27.67,30.28,4.74,23.85,1011.28,2033.13,3115.08,3081.63,3325.03,350.12,344.90,18.57,0000 0000 0000 0000 000000
2015-05-18 11:11:59,0.11,0.84,0.00,24.03,27.66,30.29,4.74,23.95,1011.28,2033.41,3114.10,3081.01,3324.52,350.33,344.88,18.60,0000 0000 0000 0000 000000
2015-05-18 11:16:59,0.05,0.84,0.00,24.01,27.65,30.30,4.76,23.87,1011.28,2033.32,3113.22,3080.37,3323.99,350.11,344.59,18.63,0000 0000 0000 0000 000000
2015-05-18 11:22:00,0.07,0.84,0.00,24.00,27.65,30.29,4.78,23.89,1011.28,2033.33,3112.39,3080.00,3323.31,350.53,345.31,18.66,0000 0000 0000 0000 000000
2015-05-18 11:27:02,0.04,0.84,0.00,24.00,27.65,30.30,4.75,23.96,1011.27,2033.32,3111.72,3079.52,3322.97,349.80,344.29,18.69,0000 0000 0000 0000 000000
2015-05-18 11:32:03,0.09,0.85,0.00,23.99,27.65,30.28,4.70,23.85,1011.26,2033.44,3110.95,3079.01,3322.34,349.40,344.23,18.72,0000 0000 0000 0000 000000
2015-05-18 11:37:04,0.07,0.85,0.00,23.97,27.64,30.28,4.70,23.73,1011.26,2033.72,3110.15,3078.93,3322.00,349.90,344.73,18.75,0000 0000 0000 0000 000000
2015-05-18 11:42:06,0.07,0.85,0.00,23.95,27.62,30.26,4.77,23.95,1011.25,2033.67,3109.74,3078.22,3321.60,349.69,344.49,18.78,0000 0000 0000 0000 000000
2015-05-18 11:47:07,0.11,0.85,0.00,23.95,27.62,30.29,4.66,23.87,1011.25,2033.57,3108.09,3077.24,3320.40,349.80,344.70,18.81,0000 0000 0000 0000 000000
2015-05-18 11:52:08,0.06,0.86,0.00,23.94,27.62,30.26,4.72,24.08,1011.25,2033.70,3107.03,3076.92,3319.93,350.34,345.09,18.84,0000 0000 0000 0000 000000
2015-05-18 11:57:10,0.05,0.86,0.00,23.92,27.62,30.26,4.67,24.02,1011.25,2033.53,3106.44,3076.17,3319.20,349.61,344.56,18.86,0000 0000 0000 0000 000000
2015-05-18 12:02:11,0.03,0.86,0.00,23.90,27.60,30.27,4.67,23.91,1011.25,2033.49,3106.01,3076.01,3319.00,349.89,344.68,18.89,0000 0000 0000 0000 000000
2015-05-18 12:07:12,0.03,0.86,0.00,23.87,27.60,30.28,4.81,23.88,1011.25,2033.61,3105.52,3075.99,3318.97,350.67,345.50,18.92,0000 0000 0000 0000 000000
2015-05-18 12:12:13,0.07,0.86,0.00,23.85,27.60,30.28,4.77,23.87,1011.25,2033.80,3104.97,3075.82,3318.29,350.49,345.35,18.95,0000 0000 0000 0000 000000
2015-05-18 12:17:14,0.07,0.86,0.00,23.82,27.59,30.29,4.69,23.84,1011.25,2033.90,3104.19,3075.12,3317.99,350.05,344.97,18.98,0000 0000 0000 0000 000000
2015-05-18 12:22:16,0.09,0.87,0.00,23.79,27.57,30.31,4.70,23.78,1011.24,2033.91,3103.15,3074.61,3317.19,349.97,344.83,19.01,0000 0000 0000 0000 000000
2015-05-18 12:27:17,0.07,0.87,0.00,23.75,27.57,30.32,4.66,23.84,1011.24,2033.96,3102.07,3073.92,3316.52,349.62,344.55,19.04,0000 0000 0000 0000 000000
2015-05-18 12:32:18,0.13,0.87,0.00,23.72,27.57,30.32,4.78,23.94,1011.21,2033.97,3100.69,3072.93,3315.43,349.82,344.97,19.07,0000 0000 0000 0000 000000
2015-05-18 12:37:19,0.13,0.88,0.00,23.68,27.55,30.32,4.70,23.97,1011.19,2033.96,3098.89,3071.80,3314.25,350.93,345.86,19.10,0000 0000 0000 0000 000000
2015-05-18 12:42:20,0.10,0.88,0.00,23.66,27.55,30.32,4.76,23.80,1011.22,2033.98,3097.19,3070.92,3313.10,350.65,345.64,19.13,0000 0000 0000 0000 000000
2015-05-18 12:47:22,0.11,0.88,0.00,23.65,27.54,30.31,4.70,23.88,1011.21,2033.99,3095.76,3070.05,3312.13,349.46,344.52,19.16,0000 0000 0000 0000 000000
2015-05-18 12:52:23,0.10,0.89,0.00,23.62,27.52,30.31,4.75,23.94,1011.18,2033.99,3094.65,3069.23,3311.36,350.03,345.31,19.19,0000 0000 0000 0000 000000
2015-05-18 12:57:24,0.09,0.89,0.00,23.59,27.52,30.31,4.72,24.04,1011.17,2033.98,3093.43,3068.47,3310.43,349.70,344.72,19.22,0000 0000 0000 0000 000000
2015-05-18 13:02:25,0.01,0.89,0.00,23.56,27.50,30.29,4.72,23.98,1011.09,2033.99,3093.00,3068.05,3310.03,349.36,344.58,19.25,0000 0000 0000 0000 000000